{"data":{"norad_id":66204,"epoch":"2026-09-20T14:38:27.982176Z","epoch_age_seconds":90930,"freshness":"FRESH","line1":"1 66204U 25243AD  26263.61004609  .00023994  00000+0  71876-3 0  9997","line2":"2 66204  53.1585  57.2638 0000983  84.5358 275.5757 15.34410632 50531","mean_motion":15.34410632,"eccentricity":9.83e-5,"inclination_deg":53.1585,"raan_deg":57.2638,"arg_perigee_deg":84.5358,"mean_anomaly_deg":275.5757,"bstar":0.00071876,"rev_number":5053,"period_min":93.847107806015,"perigee_km":461.99918835568,"apogee_km":463.34409133428,"semimajor_km":6840.808639845,"source":"CELESTRAK","updated_at":"2026-09-21T09:00:35.839245Z"}}